Location: Laterina
(43.5167°N, 11.7167°E)
Time: 15:58:57
(UTC+00:00)

Cosmos 1674 - Pass Details

Date: 24 September 2020
Orbit: 495 x 517 km, 82.5° (Epoch: 20 October)

Event Time Altitude Azimuth Distance (km) Brightness Sun altitude
Rises 18:51:46 0° 347° (NNW) 2,650 6.7 -19.7°
Reaches altitude 10° 18:53:56 10° 344° (NNW) 1,756 5.8 -20.0°
Maximum altitude 18:57:43 57° 266° (W) 613 3.3 -20.7°
Enters shadow 19:00:12 20° 192° (SSW) 1,241 4.5 -21.1°
